Waarnemingen

Advertentie
Mijn weer
Dunkerque, Frankrijk (7010): temperatuur & dauwpunt: 20.09.2017 14:00:00 - 26.09.2017 14:00:00 (CEST)Dunkerque, Frankrijk (7010): windsnelheid & windstoten: 20.09.2017 14:00:00 - 26.09.2017 14:00:00 (CEST)Dunkerque, Frankrijk (7010): windrichting: 20.09.2017 14:00:00 - 26.09.2017 14:00:00 (CEST)Dunkerque, Frankrijk (7010): luchtdruk: 20.09.2017 14:00:00 - 26.09.2017 14:00:00 (CEST)Dunkerque, Frankrijk (7010): zicht: 20.09.2017 14:00:00 - 26.09.2017 14:00:00 (CEST)Dunkerque, Frankrijk (7010): neerslag: 20.09.2017 14:00:00 - 26.09.2017 14:00:00 (CEST)
Datum & Tijd tt [°C] td [°C] ff [km/u] ff [kn] fx [km/u] fx [kn] dd ppp [hPa] vv [km] rr [mm]
26.09.2017 14:00:00 18,7 14,0 18 10 22 12 NO 1022,2 1,6 0,0
26.09.2017 13:00:00 18,4 14,1 16 8 19 11 NO 1022,4 - 0,0
26.09.2017 12:00:00 18,0 13,9 10 5 13 7 NO 1022,2 - 0,0
26.09.2017 11:00:00 16,9 13,4 7 4 13 7 ONO 1022,1 - 0,0
26.09.2017 10:00:00 15,7 13,0 6 4 10 6 O 1021,7 - 0,0
26.09.2017 09:00:00 15,2 13,2 8 4 13 7 OZO 1021,5 - 0,0
26.09.2017 08:00:00 15,3 13,1 6 3 13 7 ONO 1021,4 - 0,0
26.09.2017 07:00:00 14,9 12,6 9 5 13 7 ONO 1021,0 - 0,0
26.09.2017 06:00:00 14,8 12,3 9 5 12 7 O 1020,9 - 0,0
26.09.2017 05:00:00 15,0 12,3 7 4 16 9 O 1020,7 - 0,0
26.09.2017 04:00:00 15,1 12,2 13 7 22 12 O 1020,6 - 0,0
26.09.2017 03:00:00 15,0 12,5 16 9 19 10 O 1020,6 - 0,0
26.09.2017 02:00:00 14,7 12,4 10 5 14 8 O 1020,7 12 0,0
26.09.2017 01:00:00 15,2 12,9 9 5 16 9 O 1021,0 - 0,0
26.09.2017 00:00:00 15,9 13,2 11 6 18 10 ONO 1021,1 - 0,0
25.09.2017 23:00:00 16,0 13,3 15 8 19 11 ONO 1021,0 - 0,0
25.09.2017 22:00:00 16,0 13,8 11 6 25 13 O 1020,6 - 0,0
25.09.2017 21:00:00 16,6 14,4 19 11 27 14 ONO 1020,4 - 0,0
25.09.2017 20:00:00 16,8 14,4 22 12 27 15 ONO 1020,1 - 0,0
25.09.2017 19:00:00 17,2 13,9 19 11 27 14 NO 1019,9 - 0,0
25.09.2017 18:00:00 18,0 13,9 21 11 26 14 NO 1019,6 - 0,0
25.09.2017 17:00:00 18,2 14,1 16 9 24 13 NO 1019,6 - 0,0
25.09.2017 16:00:00 18,6 14,1 17 9 26 14 NO 1019,5 - 0,0
25.09.2017 15:00:00 19,1 13,7 16 9 20 11 NO 1019,5 - 0,0
25.09.2017 14:00:00 18,8 13,2 15 8 21 12 NO 1019,5 12 0,0
25.09.2017 13:00:00 18,7 12,4 7 4 12 7 O 1019,6 - 0,0
25.09.2017 12:00:00 17,1 11,8 9 5 15 8 OZO 1019,8 - 0,0
25.09.2017 11:00:00 15,0 11,0 9 5 16 8 ZO 1019,9 - 0,0
25.09.2017 10:00:00 14,0 10,4 11 6 14 8 OZO 1019,5 - 0,0
25.09.2017 09:00:00 13,7 10,1 11 6 19 11 ZO 1019,4 - 0,0
25.09.2017 08:00:00 13,7 9,9 17 9 24 13 ZO 1019,3 - 0,0
25.09.2017 07:00:00 13,3 10,1 17 9 23 12 OZO 1019,1 - 0,0
25.09.2017 06:00:00 13,5 10,5 17 9 22 12 ZO 1019,3 - 0,0
25.09.2017 05:00:00 13,2 10,4 16 8 27 15 ZO 1019,4 - 0,0
25.09.2017 04:00:00 13,6 10,2 19 10 27 15 OZO 1019,4 - 0,0
25.09.2017 03:00:00 14,0 10,2 19 10 26 14 OZO 1019,6 - 0,0
25.09.2017 02:00:00 14,6 10,2 18 10 26 14 OZO 1019,9 - 0,0
25.09.2017 01:00:00 15,2 10,2 16 9 24 13 OZO 1020,3 - 0,0
25.09.2017 00:00:00 15,8 9,9 15 8 24 13 OZO 1020,7 - 0,0
24.09.2017 23:00:00 16,3 10,2 15 8 25 13 OZO 1020,8 - 0,0
24.09.2017 22:00:00 17,2 10,6 16 9 23 13 OZO 1020,4 - 0,0
24.09.2017 21:00:00 18,0 11,1 16 9 24 13 OZO 1020,2 - 0,0
24.09.2017 20:00:00 18,7 11,7 14 7 22 12 OZO 1020,0 20 0,0
24.09.2017 19:00:00 20,3 10,7 16 8 22 12 OZO 1020,1 - 0,0
24.09.2017 18:00:00 21,5 10,3 16 9 28 15 ZO 1019,8 - 0,0
24.09.2017 17:00:00 21,4 10,5 18 10 29 16 ZO 1019,9 - 0,0
24.09.2017 16:00:00 21,5 11,2 17 9 29 15 ZO 1020,4 - 0,0
24.09.2017 15:00:00 21,3 11,0 17 9 26 14 ZO 1020,8 - 0,0
24.09.2017 14:00:00 20,3 10,7 14 8 21 11 ZO 1021,3 - 0,0
24.09.2017 13:00:00 19,0 11,3 11 6 21 11 ZO 1021,4 - 0,0
24.09.2017 12:00:00 17,4 10,5 13 7 17 9 ZO 1021,6 - 0,0
24.09.2017 11:00:00 15,4 10,0 10 6 19 11 ZO 1021,7 - 0,0
24.09.2017 10:00:00 13,1 9,2 16 9 23 12 ZO 1021,8 - 0,0
24.09.2017 09:00:00 12,4 8,5 15 8 21 11 ZO 1021,5 - 0,0
24.09.2017 08:00:00 12,0 8,3 14 7 22 12 ZO 1021,1 10 0,0
24.09.2017 07:00:00 12,5 8,2 16 9 22 12 ZO 1020,8 - 0,0
24.09.2017 06:00:00 12,7 8,2 14 7 20 11 ZO 1020,9 - 0,0
24.09.2017 05:00:00 13,0 8,3 11 6 23 12 OZO 1021,3 - 0,0
24.09.2017 04:00:00 12,8 8,1 10 5 18 10 ZZO 1021,5 - 0,0
24.09.2017 03:00:00 13,0 8,3 13 7 22 12 ZZO 1021,9 - 0,0
24.09.2017 02:00:00 13,1 8,8 15 8 23 12 OZO 1021,7 - 0,0
24.09.2017 01:00:00 13,7 9,3 14 7 23 12 OZO 1022,0 - 0,0
24.09.2017 00:00:00 14,5 9,5 14 8 20 11 OZO 1022,0 - 0,0
23.09.2017 23:00:00 15,4 10,0 15 8 22 12 OZO 1022,1 - 0,0
23.09.2017 22:00:00 16,0 10,3 15 8 21 12 O 1022,1 - 0,0
23.09.2017 21:00:00 15,4 11,6 12 6 29 15 O 1022,0 - 0,0
23.09.2017 20:00:00 16,0 12,4 22 12 28 15 ONO 1021,9 - 0,0
23.09.2017 19:00:00 16,2 11,4 20 11 28 15 ONO 1022,0 - 0,0
23.09.2017 18:00:00 17,2 11,7 23 12 29 16 ONO 1022,0 - 0,0
23.09.2017 17:00:00 16,6 11,1 17 9 21 11 ONO 1022,4 - 0,0
23.09.2017 16:00:00 18,3 9,1 12 7 19 11 ZO 1022,8 - 0,0
23.09.2017 15:00:00 18,0 9,3 10 6 17 9 ZO 1023,3 - 0,0
23.09.2017 14:00:00 18,1 10,0 7 4 16 8 ZZO 1023,6 - 0,0
23.09.2017 13:00:00 18,2 10,1 9 5 21 11 ZZW 1023,9 - 0,0
23.09.2017 12:00:00 18,3 10,6 11 6 18 10 ZO 1024,2 - 0,0
23.09.2017 11:00:00 16,3 9,5 11 6 15 8 ZZO 1024,2 20 0,0
23.09.2017 10:00:00 14,5 8,7 10 5 15 8 ZZO 1024,1 - 0,0
23.09.2017 09:00:00 12,0 8,1 9 5 13 7 Z 1023,9 - 0,0
23.09.2017 08:00:00 10,3 8,1 10 5 13 7 Z 1023,8 - 0,0
23.09.2017 07:00:00 10,8 8,0 10 6 17 9 Z 1023,7 - 0,0
23.09.2017 06:00:00 10,8 8,4 12 6 15 8 Z 1023,7 - 0,0
23.09.2017 05:00:00 10,6 8,0 4 2 11 6 ZZW 1023,6 - 0,0
23.09.2017 04:00:00 11,1 8,0 8 4 13 7 Z 1024,0 - 0,0
23.09.2017 03:00:00 11,4 7,7 3 1 15 8 ZZW 1024,0 - 0,0
23.09.2017 02:00:00 11,9 8,0 4 2 10 5 ZW 1024,0 - 0,0
23.09.2017 01:00:00 11,9 8,0 5 3 19 10 ZZW 1023,9 - 0,0
23.09.2017 00:00:00 12,9 8,2 10 5 20 11 ZZW 1023,7 - 0,0
22.09.2017 23:00:00 13,3 7,9 4 2 7 4 WNW 1023,7 - 0,0
22.09.2017 22:00:00 13,9 7,6 2 1 18 10 ZW 1023,5 - 0,0
22.09.2017 21:00:00 14,6 8,1 12 7 20 11 ZZW 1023,3 - 0,0
22.09.2017 20:00:00 15,3 9,4 6 3 15 8 NW 1022,7 - 0,0
22.09.2017 19:00:00 16,7 9,6 11 6 16 9 NW 1022,5 - 0,0
22.09.2017 18:00:00 16,5 9,2 11 6 14 8 NNW 1022,3 - 0,0
22.09.2017 17:00:00 16,7 8,6 9 5 17 9 NNW 1022,0 20 0,0
22.09.2017 16:00:00 16,5 9,4 11 6 19 10 NNW 1022,0 - 0,0
22.09.2017 15:00:00 16,8 9,7 12 7 17 9 NNW 1022,0 - 0,0
22.09.2017 14:00:00 16,4 10,3 11 6 16 9 NNW 1021,9 13 0,0
22.09.2017 13:00:00 16,5 10,6 11 6 16 9 NNW 1021,7 - 0,0
22.09.2017 12:00:00 15,5 10,7 11 6 18 10 NNW 1021,6 - 0,0
22.09.2017 11:00:00 16,2 10,9 11 6 17 9 NNW 1021,3 - 0,0
22.09.2017 10:00:00 16,1 11,3 12 7 19 11 NNW 1020,8 - 0,0
22.09.2017 09:00:00 15,5 11,7 12 6 20 11 NNW 1020,2 - 0,0
22.09.2017 08:00:00 15,3 12,1 11 6 24 13 NNW 1020,0 13 0,0
22.09.2017 07:00:00 15,5 12,3 14 8 23 12 NNW 1019,3 - 0,0
22.09.2017 06:00:00 15,6 13,1 12 7 21 12 WNW 1019,2 - 0,0
22.09.2017 05:00:00 15,6 13,1 13 7 19 11 NW 1019,1 - 0,2
22.09.2017 04:00:00 15,5 13,2 11 6 24 13 NW 1019,0 - 0,0
22.09.2017 03:00:00 16,3 13,4 9 5 18 10 ZW 1019,2 - 0,0
22.09.2017 02:00:00 16,4 12,6 8 4 15 8 ZZW 1019,0 - 0,0
22.09.2017 01:00:00 16,6 12,5 9 5 21 11 W 1018,5 - 0,0
22.09.2017 00:00:00 16,8 12,9 13 7 20 11 W 1018,3 - 0,0
21.09.2017 23:00:00 16,0 10,3 9 5 15 8 Z 1018,2 20 0,0
21.09.2017 22:00:00 16,4 10,9 8 4 11 6 Z 1018,1 - 0,0
21.09.2017 21:00:00 16,9 10,7 8 4 10 5 ZZO 1018,0 - 0,0
21.09.2017 20:00:00 17,7 10,1 8 4 23 12 ZZW 1017,6 18 0,0
21.09.2017 19:00:00 18,7 9,7 11 6 29 15 ZZW 1017,3 - 0,0
21.09.2017 18:00:00 19,5 9,1 20 11 34 18 Z 1016,9 - 0,0
21.09.2017 17:00:00 19,9 9,2 18 10 29 16 Z 1017,0 18 0,0
21.09.2017 16:00:00 19,8 9,4 21 12 39 21 Z 1017,1 - 0,0
21.09.2017 15:00:00 19,8 9,1 24 13 37 20 Z 1017,0 - 0,0
21.09.2017 14:00:00 19,3 8,9 22 12 36 19 Z 1017,5 - 0,0
21.09.2017 13:00:00 18,0 8,8 19 11 36 19 Z 1017,9 - 0,0
21.09.2017 12:00:00 17,1 9,8 21 11 32 18 Z 1018,0 - 0,0
21.09.2017 11:00:00 14,6 9,0 18 10 26 14 Z 1018,2 - 0,0
21.09.2017 10:00:00 12,6 8,7 15 8 24 13 Z 1018,2 - 0,0
21.09.2017 09:00:00 11,6 8,4 14 8 23 12 Z 1018,0 - 0,0
21.09.2017 08:00:00 11,0 8,2 16 8 23 13 Z 1018,0 - 0,0
21.09.2017 07:00:00 10,7 8,3 13 7 22 12 Z 1017,9 - 0,0
21.09.2017 06:00:00 10,8 8,4 14 7 22 12 Z 1017,9 - 0,0
21.09.2017 05:00:00 10,9 8,5 14 7 20 11 Z 1018,3 - 0,0
21.09.2017 04:00:00 11,3 8,9 14 8 20 11 Z 1018,5 - 0,0
21.09.2017 03:00:00 11,8 9,2 11 6 16 9 Z 1018,8 - 0,0
21.09.2017 02:00:00 12,4 9,4 9 5 15 8 Z 1018,9 - 0,0
21.09.2017 01:00:00 12,5 9,9 9 5 14 8 Z 1019,0 - 0,0
21.09.2017 00:00:00 13,1 10,3 10 5 14 7 Z 1019,0 - 0,0
20.09.2017 23:00:00 13,6 10,8 7 4 12 6 Z 1019,1 20 0,0
20.09.2017 22:00:00 14,2 10,6 9 5 15 8 Z 1019,3 - 0,0
20.09.2017 21:00:00 14,8 11,0 10 5 15 8 Z 1019,5 - 0,0
20.09.2017 20:00:00 15,7 10,9 12 7 21 11 ZZW 1019,3 - 0,0
20.09.2017 19:00:00 15,7 11,5 10 6 21 12 ZZW 1019,3 - 0,0
20.09.2017 18:00:00 15,7 11,7 16 9 42 23 ZW 1019,6 - 0,0
20.09.2017 17:00:00 16,9 11,8 19 10 32 18 ZW 1019,8 - 0,0
20.09.2017 16:00:00 16,4 12,0 14 8 25 14 Z 1020,1 - 0,0
20.09.2017 15:00:00 15,3 11,1 16 9 32 17 ZZW 1020,4 - 0,0
20.09.2017 14:00:00 16,5 10,6 16 9 37 20 ZW 1020,4 - 0,0

tt = temperatuur
td = dauwpunt
ff = windsnelheid
fx = windstoten
dd = windrichting
ppp = luchtdruk
vv = zicht
rr = neerslag

Weerstations in de omgeving